Iowa Falls, IA

7:58 PM CDT on April 21, 2018 (GMT -0500)
Iowa Falls Municipal

Weather History for KIFA - February, 2014

Change the Weather History Date:

Saturday, February 1, 2014

  Actual Average Record
Temperature  
Mean Temperature 14 °F -  
Max Temperature 22 °F 30 °F 50 °F (1987)
Min Temperature 5 °F 11 °F -22 °F (1951)
Degree Days  
Heating Degree Days 52    
Moisture  
Dew Point 8 °F    
Average Humidity 81    
Maximum Humidity 86    
Minimum Humidity 74    
Precipitation  
Precipitation 0.00 in - - ()
Sea Level Pressure  
Sea Level Pressure 30.03 in    
Wind  
Wind Speed 6 mph (NNW)    
Max Wind Speed 18 mph    
Max Gust Speed -    
Visibility 5 miles    
Events Snow    
Averages and records for this station are not official NWS values.
T = Trace of Precipitation, MM = Missing Value Source: NWS Daily Summary

Daily Weather History Graph

Daily Weather History Graph

Search for Another Location

Airport or City:

Astronomy

Feb. 01, 2014 Rise Set
Actual Time 7:26 AM CST 5:27 PM CST
Civil Twilight 6:57 AM CST 5:56 PM CST
Nautical Twilight 6:23 AM CST 6:30 PM CST
Astronomical Twilight 5:50 AM CST 7:03 PM CST
Moon 8:13 AM CST (2/1) 8:07 PM CST (2/1)
Length of Visible Light 10h 59m
Length of Day
10h 00m
Waxing Crescent, 5% of the Moon is Illuminated
Feb 1
Waxing Crescent
Feb 6
First Quarter
Feb 14
Full
Feb 22
Last Quarter
Mar 1
New

Hourly Weather History & Observations

Time (CST) Temp. Windchill Dew Point Humidity Pressure Visibility Wind Dir Wind Speed Gust Speed Precip Events Conditions
12:15 AM 9.7 °F 1.4 °F 2.8 °F 74% 30.01 in 10.0 mi SE 4.6 mph - N/A   Overcast
12:35 AM 9.5 °F - 3.4 °F 76% 30.01 in 3.0 mi Calm Calm - N/A Snow Light Snow
12:55 AM 9.5 °F 3.0 °F 4.6 °F 81% 30.02 in 3.0 mi East 3.5 mph - N/A Snow Light Snow
1:15 AM 9.5 °F 1.2 °F 5.0 °F 82% 30.00 in 2.5 mi East 4.6 mph - N/A Snow Light Snow
1:35 AM 9.3 °F 1.0 °F 5.2 °F 83% 29.99 in 2.5 mi East 4.6 mph - N/A Snow Light Snow
1:55 AM 9.3 °F - 5.5 °F 85% 29.99 in 2.5 mi Calm Calm - N/A Snow Light Snow
2:15 AM 9.5 °F 3.0 °F 5.7 °F 85% 29.99 in 2.5 mi ENE 3.5 mph - N/A Snow Light Snow
2:35 AM 9.7 °F - 5.9 °F 85% 29.98 in 4.0 mi Calm Calm - N/A Snow Light Snow
2:55 AM 9.9 °F 1.6 °F 5.9 °F 84% 29.97 in 7.0 mi NNE 4.6 mph - N/A Snow Light Snow
3:15 AM 9.9 °F 0.2 °F 6.1 °F 85% 29.97 in 7.0 mi ENE 5.8 mph - N/A Snow Light Snow
3:35 AM 10.0 °F 0.4 °F 6.1 °F 84% 29.97 in 5.0 mi East 5.8 mph - N/A Snow Light Snow
3:55 AM 9.9 °F 3.4 °F 6.1 °F 85% 29.97 in 3.0 mi East 3.5 mph - N/A Snow Light Snow
4:15 AM 9.9 °F 3.4 °F 6.1 °F 85% 29.94 in 2.5 mi NE 3.5 mph - N/A Snow Light Snow
4:35 AM 9.9 °F 3.4 °F 6.3 °F 85% 29.93 in 2.0 mi NE 3.5 mph - N/A Snow Light Snow
4:55 AM 10.0 °F - 6.4 °F 85% 29.94 in 4.0 mi Calm Calm - N/A Snow Light Snow
5:15 AM 10.2 °F - 6.4 °F 85% 29.93 in 5.0 mi Calm Calm - N/A Snow Light Snow
5:35 AM 10.0 °F 3.6 °F 6.4 °F 85% 29.93 in 4.0 mi ENE 3.5 mph - N/A Snow Light Snow
5:55 AM 10.4 °F 2.2 °F 6.6 °F 85% 29.94 in 4.0 mi East 4.6 mph - N/A Snow Light Snow
6:15 AM 10.4 °F - 6.8 °F 85% 29.95 in 3.0 mi Calm Calm - N/A Snow Light Snow
6:35 AM 10.4 °F - 6.8 °F 85% 29.94 in 3.0 mi Calm Calm - N/A Snow Light Snow
6:55 AM 10.4 °F - 6.8 °F 85% 29.94 in 2.0 mi Calm Calm - N/A Snow Light Snow
7:15 AM 10.4 °F - 6.8 °F 85% 29.95 in 1.0 mi Calm Calm - N/A Snow Snow
7:35 AM 10.4 °F 2.2 °F 7.0 °F 86% 29.94 in 1.8 mi NNE 4.6 mph - N/A Snow Light Snow
7:55 AM 10.4 °F 4.0 °F 7.0 °F 86% 29.94 in 1.8 mi NE 3.5 mph - N/A Snow Light Snow
8:15 AM 10.9 °F 4.7 °F 7.3 °F 85% 29.95 in 2.5 mi East 3.5 mph - N/A Snow Light Snow
8:35 AM 11.3 °F - 7.5 °F 85% 29.96 in 2.0 mi Calm Calm - N/A Snow Light Snow
8:55 AM 11.8 °F - 7.7 °F 83% 29.96 in 1.0 mi Calm Calm - N/A Snow Light Snow
9:15 AM 12.0 °F - 7.7 °F 83% 29.96 in 1.5 mi Calm Calm - N/A Snow Light Snow
9:35 AM 12.6 °F - 8.6 °F 84% 29.96 in 1.8 mi Calm Calm - N/A Snow Light Snow
9:55 AM 13.1 °F - 8.8 °F 83% 29.97 in 3.0 mi Calm Calm - N/A Snow Light Snow
10:15 AM 13.8 °F - 9.3 °F 82% 29.97 in 1.8 mi Calm Calm - N/A Snow Light Snow
10:35 AM 14.9 °F - 10.4 °F 82% 29.99 in 2.0 mi Calm Calm - N/A Snow Light Snow
10:55 AM 16.0 °F 8.8 °F 11.1 °F 81% 30.00 in 3.0 mi West 4.6 mph - N/A Snow Light Snow
11:15 AM 16.9 °F 8.5 °F 11.8 °F 81% 30.00 in 2.5 mi West 5.8 mph - N/A Snow Light Snow
11:35 AM 17.4 °F 10.4 °F 12.0 °F 79% 29.99 in 5.0 mi West 4.6 mph - N/A Snow Light Snow
11:55 AM 18.5 °F 10.4 °F 12.9 °F 79% 29.98 in 7.0 mi WNW 5.8 mph - N/A   Clear
12:15 PM 19.9 °F 10.1 °F 14.2 °F 78% 29.98 in 7.0 mi West 8.1 mph - N/A   Mostly Cloudy
12:35 PM 20.1 °F 9.5 °F 14.7 °F 80% 29.98 in 5.0 mi West 9.2 mph - N/A   Haze
12:55 PM 20.8 °F 9.7 °F 15.4 °F 80% 29.97 in 7.0 mi WNW 10.4 mph - N/A   Overcast
1:15 PM 21.2 °F 9.5 °F 16.2 °F 81% 29.97 in 5.0 mi WNW 11.5 mph - N/A   Haze
1:35 PM 21.2 °F 10.1 °F 16.0 °F 80% 29.98 in 7.0 mi WNW 10.4 mph - N/A   Overcast
1:55 PM 21.2 °F 7.3 °F 15.8 °F 80% 29.97 in 5.0 mi NW 16.1 mph - N/A   Haze
2:15 PM 21.2 °F 7.3 °F 15.8 °F 80% 29.99 in 4.0 mi NW 16.1 mph - N/A Snow Light Snow
2:35 PM 21.4 °F 9.7 °F 15.6 °F 78% 29.99 in 5.0 mi NW 11.5 mph - N/A Snow Light Snow
2:55 PM 21.6 °F 10.6 °F 16.0 °F 79% 29.99 in 5.0 mi NW 10.4 mph - N/A   Haze
3:15 PM 22.1 °F 11.3 °F 16.3 °F 79% 30.00 in 5.0 mi NW 10.4 mph - N/A   Haze
3:35 PM 21.2 °F 7.3 °F 15.1 °F 77% 30.01 in 4.0 mi NW 16.1 mph - N/A Snow Light Snow
3:55 PM 19.8 °F 5.0 °F 13.6 °F 77% 30.01 in 3.0 mi NW 17.3 mph - N/A Snow Light Snow
4:15 PM 18.1 °F 2.9 °F 12.2 °F 78% 30.03 in 2.5 mi NW 17.3 mph - N/A Snow Light Snow
4:35 PM 16.9 °F 2.8 °F 11.3 °F 79% 30.04 in 7.0 mi NW 13.8 mph - N/A Snow Light Snow
4:55 PM 16.0 °F 1.7 °F 10.8 °F 80% 30.05 in 7.0 mi NW 13.8 mph - N/A Snow Light Snow
5:15 PM 15.4 °F -0.1 °F 10.4 °F 80% 30.06 in 5.0 mi NW 16.1 mph - N/A   Haze
5:35 PM 14.5 °F -1.3 °F 9.3 °F 80% 30.06 in 5.0 mi NW 16.1 mph - N/A   Haze
5:55 PM 13.6 °F -2.4 °F 8.8 °F 81% 30.07 in 7.0 mi NW 16.1 mph - N/A   Clear
6:15 PM 12.6 °F -2.7 °F 7.7 °F 81% 30.09 in 7.0 mi NW 13.8 mph - N/A   Clear
6:35 PM 10.8 °F -3.6 °F 5.9 °F 81% 30.11 in 7.0 mi NW 11.5 mph - N/A   Clear
6:55 PM 11.1 °F -5.7 °F 6.4 °F 81% 30.12 in 7.0 mi NW 16.1 mph - N/A   Clear
7:15 PM 10.8 °F -5.6 °F 5.9 °F 81% 30.13 in 7.0 mi NW 15.0 mph - N/A   Clear
7:35 PM 9.3 °F -6.1 °F 5.0 °F 83% 30.14 in 7.0 mi NW 12.7 mph - N/A   Clear
7:55 PM 9.1 °F -7.0 °F 5.0 °F 83% 30.15 in 7.0 mi NW 13.8 mph - N/A   Clear
8:15 PM 8.6 °F -7.7 °F 3.7 °F 81% 30.16 in 7.0 mi NW 13.8 mph - N/A   Clear
8:35 PM 8.4 °F -7.9 °F 3.2 °F 79% 30.17 in 10.0 mi NW 13.8 mph - N/A   Clear
8:55 PM 8.2 °F -10.5 °F 2.5 °F 77% 30.18 in 7.0 mi NW 18.4 mph - N/A   Clear
9:16 PM 7.7 °F -9.5 °F 1.4 °F 75% 30.19 in 7.0 mi NW 15.0 mph - N/A   Clear
9:35 PM 7.5 °F -9.7 °F 1.0 °F 75% 30.19 in 10.0 mi NW 15.0 mph - N/A   Clear
9:55 PM 6.8 °F -11.3 °F 0.5 °F 75% 30.19 in 7.0 mi NW 16.1 mph - N/A   Scattered Clouds
10:15 PM 6.6 °F -11.5 °F 0.7 °F 77% 30.19 in 7.0 mi NW 16.1 mph - N/A   Clear
10:35 PM 6.6 °F -12.1 °F 1.2 °F 79% 30.20 in 10.0 mi NW 17.3 mph - N/A   Clear
10:55 PM 6.4 °F -11.7 °F 1.0 °F 78% 30.20 in 7.0 mi NW 16.1 mph - N/A   Clear
11:15 PM 6.1 °F -12.2 °F 0.5 °F 78% 30.21 in 10.0 mi NW 16.1 mph - N/A   Clear
11:35 PM 5.5 °F -12.3 °F -0.4 °F 77% 30.22 in 10.0 mi NW 15.0 mph - N/A   Clear
11:55 PM 5.0 °F -13.0 °F -0.9 °F 76% 30.23 in 10.0 mi NW 15.0 mph - N/A   Clear